| time (UTC) | temp F | wind direction | speed MPH | gust MPH | rain 1hr in | rain 24hr in | rain mn in | humidity % | barometer mb |
| 20260831225504 | 90 | 171 | 1.0 | 7.0 | 0.00 | 0.00 | 0.00 | 66 | 1015.4 |
| 20260831225004 | 90 | 157 | 2.0 | 7.0 | 0.00 | 0.00 | 0.00 | 66 | 1015.5 |
| 20260831224505 | 90 | 164 | 2.0 | 7.0 | 0.00 | 0.00 | 0.00 | 65 | 1015.5 |
| 20260831224005 | 90 | 163 | 2.0 | 7.0 | 0.00 | 0.00 | 0.00 | 66 | 1015.5 |
| 20260831223505 | 90 | 98 | 2.0 | 8.0 | 0.00 | 0.00 | 0.00 | 65 | 1015.5 |
| 20260831223005 | 90 | 160 | 2.0 | 8.0 | 0.00 | 0.00 | 0.00 | 65 | 1015.5 |
| 20260831222506 | 90 | 178 | 3.0 | 7.0 | 0.00 | 0.00 | 0.00 | 65 | 1015.4 |
| 20260831222003 | 90 | 145 | 2.0 | 6.0 | 0.00 | 0.00 | 0.00 | 65 | 1015.4 |
| 20260831221503 | 90 | 159 | 1.0 | 7.0 | 0.00 | 0.00 | 0.00 | 65 | 1015.5 |
| 20260831221003 | 90 | 157 | 4.0 | 8.0 | 0.00 | 0.00 | 0.00 | 64 | 1015.4 |
| 20260831220502 | 90 | 167 | 4.0 | 8.0 | 0.00 | 0.00 | 0.00 | 64 | 1015.5 |
| 20260831220002 | 90 | 172 | 2.0 | 4.0 | 0.00 | 0.00 | 0.00 | 63 | 1015.5 |
| 20260831215502 | 90 | 171 | 3.0 | 6.0 | 0.00 | 0.00 | 0.00 | 62 | 1015.5 |
| 20260831215000 | 90 | 219 | 3.0 | 6.0 | 0.00 | 0.00 | 0.00 | 61 | 1015.7 |
| 20260831214500 | 90 | 165 | 1.0 | 5.0 | 0.00 | 0.00 | 0.00 | 61 | 1015.6 |
| 20260831214102 | 90 | 164 | 1.0 | 5.0 | 0.00 | 0.00 | 0.00 | 61 | 1015.7 |
| 20260831213600 | 90 | 142 | 2.0 | 7.0 | 0.00 | 0.00 | 0.00 | 60 | 1015.8 |
| 20260831213500 | 89 | 142 | 2.0 | 7.0 | 0.00 | 0.00 | 0.00 | 60 | 1015.7 |
| 20260831213059 | 89 | 125 | 2.0 | 7.0 | 0.00 | 0.00 | 0.00 | 60 | 1015.9 |
| 20260831212559 | 89 | 161 | 2.0 | 5.0 | 0.00 | 0.00 | 0.00 | 61 | 1015.8 |
| 20260831212059 | 89 | 127 | 1.0 | 5.0 | 0.00 | 0.00 | 0.00 | 61 | 1015.8 |
| 20260831211559 | 89 | 165 | 2.0 | 5.0 | 0.00 | 0.00 | 0.00 | 61 | 1015.9 |
| 20260831211057 | 89 | 157 | 2.0 | 5.0 | 0.00 | 0.00 | 0.00 | 62 | 1015.8 |
| 20260831210557 | 89 | 163 | 2.0 | 4.0 | 0.00 | 0.00 | 0.00 | 62 | 1016.0 |
| 20260831210058 | 89 | 171 | 2.0 | 7.0 | 0.00 | 0.00 | 0.00 | 62 | 1016.0 |
| 20260831205556 | 89 | 156 | 2.0 | 7.0 | 0.00 | 0.00 | 0.00 | 62 | 1016.1 |
| 20260831205056 | 89 | 121 | 3.0 | 8.0 | 0.00 | 0.00 | 0.00 | 61 | 1016.2 |
| 20260831204602 | 89 | 158 | 2.0 | 9.0 | 0.00 | 0.00 | 0.00 | 62 | 1016.3 |
| 20260831204055 | 89 | 157 | 3.0 | 9.0 | 0.00 | 0.00 | 0.00 | 61 | 1016.3 |
| 20260831203554 | 90 | 160 | 2.0 | 9.0 | 0.00 | 0.00 | 0.00 | 62 | 1016.3 |
| 20260831203053 | 90 | 132 | 3.0 | 7.0 | 0.00 | 0.00 | 0.00 | 63 | 1016.3 |
| 20260831202552 | 90 | 176 | 3.0 | 6.0 | 0.00 | 0.00 | 0.00 | 63 | 1016.4 |
| 20260831202052 | 90 | 123 | 2.0 | 8.0 | 0.00 | 0.00 | 0.00 | 65 | 1016.5 |
| 20260831201552 | 91 | 162 | 2.0 | 7.0 | 0.00 | 0.00 | 0.00 | 66 | 1016.6 |
| 20260831201050 | 91 | 130 | 3.0 | 7.0 | 0.00 | 0.00 | 0.00 | 66 | 1016.6 |
| 20260831200550 | 91 | 138 | 2.0 | 10.0 | 0.00 | 0.00 | 0.00 | 67 | 1016.6 |
| 20260831200050 | 90 | 164 | 4.0 | 11.0 | 0.00 | 0.00 | 0.00 | 68 | 1016.7 |
| 20260831195549 | 90 | 141 | 3.0 | 11.0 | 0.00 | 0.00 | 0.00 | 68 | 1016.7 |
| 20260831195047 | 90 | 150 | 6.0 | 11.0 | 0.00 | 0.00 | 0.00 | 68 | 1016.8 |
| 20260831194548 | 90 | 190 | 4.0 | 11.0 | 0.00 | 0.00 | 0.00 | 68 | 1016.6 |
| 20260831194046 | 91 | 163 | 3.0 | 11.0 | 0.00 | 0.00 | 0.00 | 67 | 1016.8 |
| 20260831193549 | 92 | 115 | 5.0 | 15.0 | 0.00 | 0.00 | 0.00 | 64 | 1016.8 |
| 20260831193045 | 93 | 155 | 3.0 | 8.0 | 0.00 | 0.00 | 0.00 | 58 | 1016.8 |
| 20260831192545 | 93 | 101 | 0.0 | 0.0 | 0.00 | 0.00 | 0.00 | 59 | 1016.9 |
| 20260831192043 | 94 | 89 | 0.0 | 0.0 | 0.00 | 0.00 | 0.00 | 59 | 1016.9 |
| 20260831191544 | 94 | 155 | 0.0 | 0.0 | 0.00 | 0.00 | 0.00 | 60 | 1016.9 |
| 20260831191045 | 94 | 169 | 0.0 | 0.0 | 0.00 | 0.00 | 0.00 | 59 | 1016.9 |
| 20260831190543 | 94 | 94 | 0.0 | 0.0 | 0.00 | 0.00 | 0.00 | 59 | 1017.1 |
| 20260831190101 | 94 | 88 | 0.0 | 0.0 | 0.00 | 0.00 | 0.00 | 59 | 1017.2 |
| 20260831185541 | 94 | 69 | 0.0 | 0.0 | 0.00 | 0.00 | 0.00 | 59 | 1016.9 |
| 20260831185045 | 94 | 105 | 0.0 | 0.0 | 0.00 | 0.00 | 0.00 | 60 | 1017.1 |
| 20260831184543 | 94 | 153 | 0.0 | 0.0 | 0.00 | 0.00 | 0.00 | 60 | 1017.3 |
| 20260831184040 | 93 | 32 | 0.0 | 0.0 | 0.00 | 0.00 | 0.00 | 61 | 1017.4 |
| 20260831183540 | 93 | 30 | 0.0 | 0.0 | 0.00 | 0.00 | 0.00 | 61 | 1017.5 |
| 20260831183051 | 93 | 31 | 0.0 | 0.0 | 0.00 | 0.00 | 0.00 | 61 | 1017.4 |
| 20260831182539 | 93 | 119 | 0.0 | 0.0 | 0.00 | 0.00 | 0.00 | 61 | 1017.4 |
| 20260831182038 | 93 | 102 | 0.0 | 0.0 | 0.00 | 0.00 | 0.00 | 62 | 1017.5 |
| 20260831181538 | 92 | 69 | 0.0 | 0.0 | 0.00 | 0.00 | 0.00 | 62 | 1017.5 |
| 20260831181039 | 92 | 89 | 0.0 | 0.0 | 0.00 | 0.00 | 0.00 | 62 | 1017.6 |
| 20260831180538 | 92 | 142 | 0.0 | 0.0 | 0.00 | 0.00 | 0.00 | 62 | 1017.7 |
| 20260831180037 | 93 | 128 | 0.0 | 0.0 | 0.00 | 0.00 | 0.00 | 62 | 1017.7 |
| 20260831175537 | 93 | 98 | 0.0 | 0.0 | 0.00 | 0.00 | 0.00 | 63 | 1017.8 |
| 20260831175037 | 92 | 108 | 0.0 | 0.0 | 0.00 | 0.00 | 0.00 | 63 | 1017.8 |
| 20260831174537 | 92 | 186 | 0.0 | 0.0 | 0.00 | 0.00 | 0.00 | 63 | 1017.9 |
| 20260831174038 | 92 | 146 | 0.0 | 0.0 | 0.00 | 0.00 | 0.00 | 63 | 1018.0 |
| 20260831173540 | 92 | 147 | 0.0 | 0.0 | 0.00 | 0.00 | 0.00 | 63 | 1018.1 |
| 20260831173039 | 93 | 126 | 0.0 | 0.0 | 0.00 | 0.00 | 0.00 | 64 | 1018.1 |
| 20260831172534 | 92 | 154 | 0.0 | 0.0 | 0.00 | 0.00 | 0.00 | 63 | 1018.2 |
| 20260831172033 | 93 | 155 | 0.0 | 0.0 | 0.00 | 0.00 | 0.00 | 63 | 1018.2 |
| 20260831171534 | 92 | 129 | 0.0 | 0.0 | 0.00 | 0.00 | 0.00 | 64 | 1018.1 |
| 20260831171030 | 92 | 47 | 0.0 | 0.0 | 0.00 | 0.00 | 0.00 | 64 | 1018.1 |
| 20260831170530 | 92 | 11 | 0.0 | 0.0 | 0.00 | 0.00 | 0.00 | 65 | 1018.3 |
| 20260831170029 | 92 | 55 | 0.0 | 0.0 | 0.00 | 0.00 | 0.00 | 64 | 1018.2 |
| 20260831165527 | 91 | 87 | 0.0 | 0.0 | 0.00 | 0.00 | 0.00 | 65 | 1018.4 |
| 20260831165026 | 91 | 59 | 0.0 | 0.0 | 0.00 | 0.00 | 0.00 | 66 | 1018.3 |
| 20260831164529 | 90 | 144 | 0.0 | 0.0 | 0.00 | 0.00 | 0.00 | 67 | 1018.3 |
| 20260831164026 | 90 | 347 | 0.0 | 0.0 | 0.00 | 0.00 | 0.00 | 68 | 1018.3 |
| 20260831163522 | 91 | 15 | 0.0 | 0.0 | 0.00 | 0.00 | 0.00 | 67 | 1018.4 |
| 20260831163037 | 91 | 355 | 0.0 | 0.0 | 0.00 | 0.00 | 0.00 | 67 | 1018.5 |
| 20260831162520 | 91 | 117 | 0.0 | 0.0 | 0.00 | 0.00 | 0.00 | 67 | 1018.2 |
| 20260831162018 | 90 | 119 | 0.0 | 0.0 | 0.00 | 0.00 | 0.00 | 67 | 1018.4 |
| 20260831161516 | 90 | 105 | 0.0 | 0.0 | 0.00 | 0.00 | 0.00 | 67 | 1018.5 |
| 20260831161014 | 90 | 73 | 0.0 | 0.0 | 0.00 | 0.00 | 0.00 | 68 | 1018.6 |
| 20260831160514 | 90 | 190 | 0.0 | 0.0 | 0.00 | 0.00 | 0.00 | 67 | 1018.6 |
| 20260831160021 | 90 | 125 | 0.0 | 0.0 | 0.00 | 0.00 | 0.00 | 68 | 1018.6 |
| 20260831155512 | 90 | 120 | 0.0 | 0.0 | 0.00 | 0.00 | 0.00 | 68 | 1018.6 |
| 20260831155011 | 89 | 147 | 0.0 | 0.0 | 0.00 | 0.00 | 0.00 | 70 | 1018.6 |
| 20260831154511 | 89 | 355 | 0.0 | 0.0 | 0.00 | 0.00 | 0.00 | 70 | 1018.6 |
| 20260831154012 | 89 | 38 | 0.0 | 0.0 | 0.00 | 0.00 | 0.00 | 70 | 1018.6 |
| 20260831153508 | 89 | 71 | 0.0 | 0.0 | 0.00 | 0.00 | 0.00 | 70 | 1018.6 |
| 20260831153008 | 88 | 38 | 0.0 | 0.0 | 0.00 | 0.00 | 0.00 | 70 | 1018.5 |
| 20260831152510 | 88 | 63 | 0.0 | 0.0 | 0.00 | 0.00 | 0.00 | 71 | 1018.5 |
| 20260831152008 | 88 | 168 | 0.0 | 0.0 | 0.00 | 0.00 | 0.00 | 72 | 1018.6 |
| 20260831151607 | 88 | 94 | 0.0 | 0.0 | 0.00 | 0.00 | 0.00 | 71 | 1018.6 |
| 20260831151005 | 88 | 106 | 0.0 | 0.0 | 0.00 | 0.00 | 0.00 | 71 | 1018.5 |
| 20260831150506 | 87 | 37 | 0.0 | 0.0 | 0.00 | 0.00 | 0.00 | 74 | 1018.5 |
| 20260831150004 | 87 | 92 | 0.0 | 0.0 | 0.00 | 0.00 | 0.00 | 75 | 1018.4 |
| 20260831145502 | 87 | 336 | 0.0 | 0.0 | 0.00 | 0.00 | 0.00 | 76 | 1018.4 |
| 20260831145003 | 87 | 348 | 0.0 | 0.0 | 0.00 | 0.00 | 0.00 | 76 | 1018.4 |
| 20260831144505 | 87 | 32 | 0.0 | 0.0 | 0.00 | 0.00 | 0.00 | 77 | 1018.5 |
| 20260831144100 | 87 | 36 | 0.0 | 0.0 | 0.00 | 0.00 | 0.00 | 78 | 1018.4 |
| 20260831143600 | 87 | 38 | 0.0 | 0.0 | 0.00 | 0.00 | 0.00 | 79 | 1018.2 |
| 20260831143108 | 86 | 37 | 0.0 | 0.0 | 0.00 | 0.00 | 0.00 | 79 | 1018.2 |
| 20260831142559 | 86 | 35 | 0.0 | 0.0 | 0.00 | 0.00 | 0.00 | 80 | 1018.2 |
| 20260831142057 | 85 | 175 | 0.0 | 0.0 | 0.00 | 0.00 | 0.00 | 81 | 1018.2 |
| 20260831141554 | 85 | 175 | 0.0 | 0.0 | 0.00 | 0.00 | 0.00 | 81 | 1018.2 |
| 20260831141054 | 85 | 176 | 0.0 | 0.0 | 0.00 | 0.00 | 0.00 | 83 | 1018.2 |
| 20260831140553 | 84 | 171 | 0.0 | 0.0 | 0.00 | 0.00 | 0.00 | 83 | 1018.2 |
| 20260831140052 | 84 | 169 | 0.0 | 0.0 | 0.00 | 0.00 | 0.00 | 84 | 1018.1 |
| 20260831135551 | 84 | 168 | 0.0 | 0.0 | 0.00 | 0.00 | 0.00 | 84 | 1018.0 |
| 20260831135050 | 83 | 168 | 0.0 | 0.0 | 0.00 | 0.00 | 0.00 | 85 | 1017.9 |
| 20260831134550 | 83 | 168 | 0.0 | 0.0 | 0.00 | 0.00 | 0.00 | 85 | 1018.1 |
| 20260831134048 | 83 | 168 | 0.0 | 0.0 | 0.00 | 0.00 | 0.00 | 86 | 1017.9 |
| 20260831133548 | 82 | 168 | 0.0 | 0.0 | 0.00 | 0.00 | 0.00 | 87 | 1018.1 |
| 20260831133052 | 82 | 168 | 0.0 | 0.0 | 0.00 | 0.00 | 0.00 | 88 | 1017.9 |
| 20260831132548 | 81 | 168 | 0.0 | 0.0 | 0.00 | 0.00 | 0.00 | 89 | 1017.8 |
| 20260831132050 | 81 | 168 | 0.0 | 0.0 | 0.00 | 0.00 | 0.00 | 90 | 1017.8 |
| 20260831131546 | 80 | 169 | 0.0 | 0.0 | 0.00 | 0.00 | 0.00 | 91 | 1017.8 |
| 20260831131045 | 80 | 169 | 0.0 | 0.0 | 0.00 | 0.00 | 0.00 | 91 | 1017.6 |
| 20260831130545 | 79 | 169 | 0.0 | 0.0 | 0.00 | 0.00 | 0.00 | 92 | 1017.5 |
| 20260831130049 | 79 | 169 | 0.0 | 0.0 | 0.00 | 0.00 | 0.00 | 92 | 1017.6 |
| 20260831125545 | 79 | 169 | 0.0 | 0.0 | 0.00 | 0.00 | 0.00 | 92 | 1017.5 |
| 20260831125047 | 78 | 169 | 0.0 | 0.0 | 0.00 | 0.00 | 0.00 | 92 | 1017.5 |
| 20260831124550 | 78 | 169 | 0.0 | 0.0 | 0.00 | 0.00 | 0.00 | 92 | 1017.5 |
| 20260831124044 | 78 | 169 | 0.0 | 0.0 | 0.00 | 0.00 | 0.00 | 92 | 1017.5 |
| 20260831123544 | 78 | 169 | 0.0 | 0.0 | 0.00 | 0.00 | 0.00 | 92 | 1017.5 |
| 20260831123044 | 78 | 169 | 0.0 | 0.0 | 0.00 | 0.00 | 0.00 | 92 | 1017.4 |
| 20260831122543 | 77 | 169 | 0.0 | 0.0 | 0.00 | 0.00 | 0.00 | 92 | 1017.3 |
| 20260831122044 | 77 | 169 | 0.0 | 0.0 | 0.00 | 0.00 | 0.00 | 91 | 1017.3 |
| 20260831121543 | 77 | 169 | 0.0 | 0.0 | 0.00 | 0.00 | 0.00 | 91 | 1017.2 |
| 20260831121043 | 77 | 169 | 0.0 | 0.0 | 0.00 | 0.00 | 0.00 | 91 | 1017.1 |
| 20260831120542 | 77 | 169 | 0.0 | 0.0 | 0.00 | 0.00 | 0.00 | 91 | 1017.0 |
| 20260831120052 | 77 | 169 | 0.0 | 0.0 | 0.00 | 0.00 | 0.00 | 91 | 1017.0 |
| 20260831115542 | 78 | 169 | 0.0 | 0.0 | 0.00 | 0.00 | 0.00 | 91 | 1016.9 |
| 20260831115042 | 78 | 169 | 0.0 | 0.0 | 0.00 | 0.00 | 0.00 | 91 | 1016.8 |
| 20260831114542 | 78 | 169 | 0.0 | 0.0 | 0.00 | 0.00 | 0.00 | 91 | 1016.8 |
| 20260831114045 | 78 | 169 | 0.0 | 0.0 | 0.00 | 0.00 | 0.00 | 91 | 1016.9 |
| 20260831113541 | 78 | 169 | 0.0 | 0.0 | 0.00 | 0.00 | 0.00 | 90 | 1016.8 |
| 20260831113050 | 78 | 169 | 0.0 | 0.0 | 0.00 | 0.00 | 0.00 | 90 | 1016.8 |
| 20260831112540 | 78 | 169 | 0.0 | 0.0 | 0.00 | 0.00 | 0.00 | 90 | 1016.8 |
| 20260831112039 | 78 | 169 | 0.0 | 0.0 | 0.00 | 0.00 | 0.00 | 91 | 1016.8 |
| 20260831111539 | 78 | 169 | 0.0 | 0.0 | 0.00 | 0.00 | 0.00 | 90 | 1016.8 |
| 20260831111039 | 78 | 169 | 0.0 | 0.0 | 0.00 | 0.00 | 0.00 | 90 | 1016.8 |
| 20260831110541 | 78 | 169 | 0.0 | 0.0 | 0.00 | 0.00 | 0.00 | 90 | 1016.8 |
| 20260831110039 | 78 | 169 | 0.0 | 0.0 | 0.00 | 0.00 | 0.00 | 90 | 1016.8 |
| 20260831105538 | 78 | 169 | 0.0 | 0.0 | 0.00 | 0.00 | 0.00 | 90 | 1016.8 |
| 20260831105038 | 78 | 169 | 0.0 | 0.0 | 0.00 | 0.00 | 0.00 | 90 | 1016.9 |
| 20260831104538 | 78 | 169 | 0.0 | 0.0 | 0.00 | 0.00 | 0.00 | 90 | 1016.8 |
| 20260831104037 | 78 | 169 | 0.0 | 0.0 | 0.00 | 0.00 | 0.00 | 89 | 1016.9 |
| 20260831103537 | 79 | 169 | 0.0 | 0.0 | 0.00 | 0.00 | 0.00 | 90 | 1016.8 |
| 20260831103040 | 79 | 169 | 0.0 | 0.0 | 0.00 | 0.00 | 0.00 | 89 | 1016.8 |
| 20260831102537 | 79 | 169 | 0.0 | 0.0 | 0.00 | 0.00 | 0.00 | 89 | 1016.9 |
| 20260831102038 | 79 | 169 | 0.0 | 0.0 | 0.00 | 0.00 | 0.00 | 89 | 1016.9 |
| 20260831101536 | 79 | 169 | 0.0 | 0.0 | 0.00 | 0.00 | 0.00 | 89 | 1017.0 |
| 20260831101036 | 79 | 169 | 0.0 | 0.0 | 0.00 | 0.00 | 0.00 | 88 | 1017.0 |
| 20260831100537 | 79 | 169 | 0.0 | 0.0 | 0.00 | 0.00 | 0.00 | 88 | 1017.0 |
| 20260831100036 | 79 | 169 | 0.0 | 0.0 | 0.00 | 0.00 | 0.00 | 88 | 1017.0 |
| 20260831095535 | 79 | 169 | 0.0 | 0.0 | 0.00 | 0.00 | 0.00 | 88 | 1017.0 |
| 20260831095034 | 79 | 169 | 0.0 | 0.0 | 0.00 | 0.00 | 0.00 | 88 | 1017.0 |
| 20260831094539 | 79 | 169 | 0.0 | 0.0 | 0.00 | 0.00 | 0.00 | 88 | 1016.9 |
| 20260831094036 | 79 | 169 | 0.0 | 0.0 | 0.00 | 0.00 | 0.00 | 88 | 1017.0 |
| 20260831093536 | 79 | 169 | 0.0 | 0.0 | 0.00 | 0.00 | 0.00 | 88 | 1016.9 |
| 20260831093033 | 79 | 169 | 0.0 | 0.0 | 0.00 | 0.00 | 0.00 | 88 | 1016.8 |
| 20260831092532 | 79 | 169 | 0.0 | 0.0 | 0.00 | 0.00 | 0.00 | 88 | 1016.8 |
| 20260831092031 | 79 | 169 | 0.0 | 0.0 | 0.00 | 0.00 | 0.00 | 88 | 1016.7 |
| 20260831091536 | 79 | 169 | 0.0 | 0.0 | 0.00 | 0.00 | 0.00 | 88 | 1016.7 |
| 20260831091030 | 79 | 169 | 0.0 | 0.0 | 0.00 | 0.00 | 0.00 | 88 | 1016.8 |
| 20260831090530 | 79 | 169 | 0.0 | 0.0 | 0.00 | 0.00 | 0.00 | 88 | 1016.8 |
| 20260831090032 | 79 | 169 | 0.0 | 0.0 | 0.00 | 0.00 | 0.00 | 87 | 1016.7 |
| 20260831085530 | 80 | 169 | 0.0 | 0.0 | 0.00 | 0.00 | 0.00 | 87 | 1016.8 |
| 20260831085028 | 80 | 169 | 0.0 | 0.0 | 0.00 | 0.00 | 0.00 | 87 | 1017.0 |
| 20260831084532 | 80 | 169 | 0.0 | 0.0 | 0.00 | 0.00 | 0.00 | 87 | 1017.1 |
| 20260831084027 | 80 | 169 | 0.0 | 0.0 | 0.00 | 0.00 | 0.00 | 86 | 1017.0 |
| 20260831083527 | 80 | 169 | 0.0 | 0.0 | 0.00 | 0.00 | 0.00 | 86 | 1016.9 |
| 20260831083027 | 80 | 169 | 0.0 | 0.0 | 0.00 | 0.00 | 0.00 | 86 | 1017.0 |
| 20260831082528 | 80 | 169 | 0.0 | 0.0 | 0.00 | 0.00 | 0.00 | 86 | 1017.0 |
| 20260831082025 | 80 | 169 | 0.0 | 0.0 | 0.00 | 0.00 | 0.00 | 86 | 1017.0 |
| 20260831081525 | 80 | 169 | 0.0 | 0.0 | 0.00 | 0.00 | 0.00 | 86 | 1016.9 |
| 20260831081023 | 80 | 169 | 0.0 | 1.0 | 0.00 | 0.00 | 0.00 | 86 | 1016.9 |
| 20260831080523 | 80 | 169 | 0.0 | 1.0 | 0.00 | 0.00 | 0.00 | 86 | 1016.9 |
| 20260831080031 | 81 | 169 | 0.0 | 0.0 | 0.00 | 0.00 | 0.00 | 86 | 1017.0 |
| 20260831075522 | 81 | 169 | 0.0 | 0.0 | 0.00 | 0.00 | 0.00 | 85 | 1017.0 |
| 20260831075021 | 81 | 169 | 0.0 | 0.0 | 0.00 | 0.00 | 0.00 | 85 | 1017.1 |
| 20260831074521 | 81 | 169 | 0.0 | 0.0 | 0.00 | 0.00 | 0.00 | 85 | 1017.1 |
| 20260831074020 | 81 | 169 | 0.0 | 0.0 | 0.00 | 0.00 | 0.00 | 84 | 1017.1 |
| 20260831073519 | 81 | 169 | 0.0 | 0.0 | 0.00 | 0.00 | 0.00 | 85 | 1017.1 |
| 20260831073019 | 81 | 169 | 0.0 | 1.0 | 0.00 | 0.00 | 0.00 | 84 | 1017.1 |
| 20260831072521 | 81 | 169 | 0.0 | 1.0 | 0.00 | 0.00 | 0.00 | 84 | 1017.1 |
| 20260831072022 | 82 | 169 | 0.0 | 1.0 | 0.00 | 0.00 | 0.00 | 84 | 1017.1 |
| 20260831071520 | 82 | 169 | 0.0 | 1.0 | 0.00 | 0.00 | 0.00 | 84 | 1017.0 |
| 20260831071017 | 82 | 169 | 0.0 | 2.0 | 0.00 | 0.00 | 0.00 | 84 | 1017.1 |
| 20260831070519 | 82 | 169 | 0.0 | 2.0 | 0.00 | 0.00 | 0.00 | 84 | 1017.1 |
| 20260831070017 | 82 | 174 | 0.0 | 3.0 | 0.00 | 0.00 | 0.00 | 84 | 1017.1 |
| 20260831065517 | 82 | 173 | 0.0 | 3.0 | 0.00 | 0.00 | 0.00 | 84 | 1017.1 |
| 20260831065016 | 82 | 157 | 0.0 | 1.0 | 0.00 | 0.00 | 0.00 | 83 | 1017.3 |
| 20260831064515 | 82 | 157 | 0.0 | 2.0 | 0.00 | 0.00 | 0.00 | 83 | 1017.3 |
| 20260831064014 | 82 | 161 | 0.0 | 4.0 | 0.00 | 0.00 | 0.00 | 83 | 1017.2 |
| 20260831063514 | 82 | 161 | 0.0 | 4.0 | 0.00 | 0.00 | 0.00 | 83 | 1017.4 |
| 20260831063014 | 82 | 181 | 0.0 | 2.0 | 0.00 | 0.00 | 0.00 | 83 | 1017.3 |
| 20260831062515 | 82 | 188 | 0.0 | 2.0 | 0.00 | 0.00 | 0.00 | 84 | 1017.4 |
| 20260831062013 | 82 | 163 | 0.0 | 1.0 | 0.00 | 0.00 | 0.00 | 83 | 1017.3 |
| 20260831061513 | 82 | 163 | 0.0 | 2.0 | 0.00 | 0.00 | 0.00 | 83 | 1017.4 |
| 20260831061012 | 82 | 155 | 0.0 | 1.0 | 0.00 | 0.00 | 0.00 | 83 | 1017.4 |
| 20260831060512 | 82 | 145 | 0.0 | 2.0 | 0.00 | 0.00 | 0.00 | 83 | 1017.4 |
| 20260831060011 | 82 | 128 | 0.0 | 3.0 | 0.00 | 0.00 | 0.00 | 83 | 1017.4 |
| 20260831055511 | 82 | 169 | 0.0 | 3.0 | 0.00 | 0.00 | 0.00 | 83 | 1017.4 |
| 20260831055013 | 83 | 179 | 0.0 | 3.0 | 0.00 | 0.00 | 0.00 | 83 | 1017.5 |
| 20260831054511 | 83 | 194 | 0.0 | 3.0 | 0.00 | 0.00 | 0.00 | 83 | 1017.4 |
| 20260831054013 | 83 | 175 | 0.0 | 2.0 | 0.00 | 0.00 | 0.00 | 83 | 1017.5 |
| 20260831053510 | 83 | 178 | 0.0 | 2.0 | 0.00 | 0.00 | 0.00 | 83 | 1017.6 |
| 20260831053022 | 83 | 161 | 0.0 | 2.0 | 0.00 | 0.00 | 0.00 | 82 | 1017.4 |
| 20260831052508 | 83 | 160 | 0.0 | 2.0 | 0.00 | 0.00 | 0.00 | 82 | 1017.3 |
| 20260831052008 | 83 | 192 | 0.0 | 2.0 | 0.00 | 0.00 | 0.00 | 82 | 1017.3 |
| 20260831051507 | 83 | 157 | 0.0 | 2.0 | 0.00 | 0.00 | 0.00 | 82 | 1017.3 |
| 20260831051007 | 83 | 167 | 0.0 | 5.0 | 0.00 | 0.00 | 0.00 | 82 | 1017.2 |
| 20260831050507 | 83 | 158 | 0.0 | 5.0 | 0.00 | 0.00 | 0.00 | 82 | 1017.2 |
| 20260831050012 | 83 | 197 | 0.0 | 7.0 | 0.00 | 0.00 | 0.00 | 82 | 1017.1 |
| 20260831045505 | 83 | 190 | 0.0 | 7.0 | 0.00 | 0.00 | 0.00 | 82 | 1017.1 |
| 20260831045005 | 83 | 182 | 1.0 | 7.0 | 0.00 | 0.00 | 0.00 | 81 | 1017.2 |
| 20260831044505 | 83 | 163 | 0.0 | 6.0 | 0.00 | 0.00 | 0.00 | 81 | 1017.2 |
| 20260831044004 | 84 | 181 | 0.0 | 6.0 | 0.00 | 0.00 | 0.00 | 81 | 1017.1 |
| 20260831043505 | 84 | 188 | 0.0 | 2.0 | 0.00 | 0.00 | 0.00 | 81 | 1017.1 |
| 20260831043006 | 84 | 176 | 0.0 | 1.0 | 0.00 | 0.00 | 0.00 | 81 | 1017.2 |
| 20260831042506 | 84 | 175 | 0.0 | 3.0 | 0.00 | 0.00 | 0.00 | 81 | 1017.1 |
| 20260831042004 | 84 | 169 | 0.0 | 4.0 | 0.00 | 0.00 | 0.00 | 81 | 1017.1 |
| 20260831041504 | 84 | 181 | 0.0 | 5.0 | 0.00 | 0.00 | 0.00 | 80 | 1017.0 |
| 20260831041004 | 84 | 180 | 1.0 | 5.0 | 0.00 | 0.00 | 0.00 | 80 | 1016.9 |
| 20260831040504 | 84 | 173 | 0.0 | 7.0 | 0.00 | 0.00 | 0.00 | 80 | 1016.9 |
| 20260831040002 | 84 | 146 | 1.0 | 8.0 | 0.00 | 0.00 | 0.00 | 80 | 1016.9 |
| 20260831035506 | 84 | 144 | 2.0 | 7.0 | 0.00 | 0.00 | 0.00 | 79 | 1017.0 |
| 20260831035002 | 84 | 176 | 1.0 | 7.0 | 0.00 | 0.00 | 0.00 | 79 | 1016.8 |
| 20260831034503 | 84 | 167 | 3.0 | 6.0 | 0.00 | 0.00 | 0.00 | 79 | 1016.9 |
| 20260831034002 | 85 | 146 | 1.0 | 7.0 | 0.00 | 0.00 | 0.00 | 78 | 1016.8 |
| 20260831033502 | 85 | 194 | 2.0 | 7.0 | 0.00 | 0.00 | 0.00 | 78 | 1016.6 |
| 20260831033004 | 85 | 117 | 1.0 | 9.0 | 0.00 | 0.00 | 0.00 | 77 | 1016.6 |
| 20260831032502 | 85 | 179 | 2.0 | 9.0 | 0.00 | 0.00 | 0.00 | 77 | 1016.5 |
| 20260831032003 | 85 | 158 | 2.0 | 5.0 | 0.00 | 0.00 | 0.00 | 77 | 1016.6 |
| 20260831031501 | 85 | 128 | 1.0 | 5.0 | 0.00 | 0.00 | 0.00 | 76 | 1016.6 |
| 20260831031002 | 85 | 161 | 1.0 | 6.0 | 0.00 | 0.00 | 0.00 | 76 | 1016.5 |
| 20260831030501 | 85 | 165 | 2.0 | 6.0 | 0.00 | 0.00 | 0.00 | 76 | 1016.4 |
| 20260831030100 | 85 | 184 | 2.0 | 6.0 | 0.00 | 0.00 | 0.00 | 76 | 1016.3 |
| 20260831030001 | 85 | 156 | 2.0 | 6.0 | 0.00 | 0.00 | 0.00 | 76 | 1016.3 |
| 20260831025600 | 86 | 114 | 3.0 | 9.0 | 0.00 | 0.00 | 0.00 | 75 | 1016.3 |
| 20260831025100 | 86 | 159 | 4.0 | 9.0 | 0.00 | 0.00 | 0.00 | 75 | 1016.1 |
| 20260831024602 | 86 | 180 | 3.0 | 10.0 | 0.00 | 0.00 | 0.00 | 74 | 1016.1 |
| 20260831024100 | 86 | 181 | 2.0 | 11.0 | 0.00 | 0.00 | 0.00 | 74 | 1016.1 |
| 20260831023604 | 86 | 175 | 1.0 | 5.0 | 0.00 | 0.00 | 0.00 | 73 | 1016.1 |
| 20260831023059 | 86 | 184 | 2.0 | 5.0 | 0.00 | 0.00 | 0.00 | 72 | 1015.9 |
| 20260831022559 | 87 | 173 | 2.0 | 7.0 | 0.00 | 0.00 | 0.00 | 72 | 1016.0 |
| 20260831022059 | 87 | 172 | 0.0 | 9.0 | 0.00 | 0.00 | 0.00 | 71 | 1015.9 |
| 20260831021558 | 87 | 155 | 2.0 | 9.0 | 0.00 | 0.00 | 0.00 | 71 | 1015.7 |
| 20260831021058 | 87 | 182 | 1.0 | 10.0 | 0.00 | 0.00 | 0.00 | 70 | 1015.6 |
| 20260831020559 | 87 | 131 | 2.0 | 10.0 | 0.00 | 0.00 | 0.00 | 69 | 1015.6 |
| 20260831020057 | 87 | 178 | 4.0 | 7.0 | 0.00 | 0.00 | 0.00 | 69 | 1015.6 |
| 20260831015600 | 88 | 157 | 1.0 | 8.0 | 0.00 | 0.00 | 0.00 | 68 | 1015.3 |
| 20260831015056 | 88 | 149 | 4.0 | 8.0 | 0.00 | 0.00 | 0.00 | 68 | 1015.4 |
| 20260831014556 | 88 | 170 | 3.0 | 8.0 | 0.00 | 0.00 | 0.00 | 67 | 1015.3 |
| 20260831014055 | 88 | 161 | 0.0 | 5.0 | 0.00 | 0.00 | 0.00 | 66 | 1015.4 |
| 20260831013555 | 89 | 171 | 0.0 | 8.0 | 0.00 | 0.00 | 0.00 | 66 | 1015.4 |
| 20260831013108 | 89 | 170 | 3.0 | 8.0 | 0.00 | 0.00 | 0.00 | 65 | 1015.5 |
| 20260831012555 | 89 | 145 | 0.0 | 8.0 | 0.00 | 0.00 | 0.00 | 65 | 1015.5 |
| 20260831012056 | 89 | 135 | 1.0 | 6.0 | 0.00 | 0.00 | 0.00 | 64 | 1015.4 |
| 20260831011557 | 89 | 146 | 0.0 | 8.0 | 0.00 | 0.00 | 0.00 | 63 | 1015.4 |
| 20260831011054 | 90 | 172 | 1.0 | 8.0 | 0.00 | 0.00 | 0.00 | 63 | 1015.4 |
| 20260831010554 | 90 | 154 | 2.0 | 7.0 | 0.00 | 0.00 | 0.00 | 63 | 1015.3 |
| 20260831010055 | 90 | 164 | 4.0 | 9.0 | 0.00 | 0.00 | 0.00 | 62 | 1015.4 |
| 20260831005553 | 90 | 174 | 2.0 | 10.0 | 0.00 | 0.00 | 0.00 | 61 | 1015.2 |
| 20260831005053 | 91 | 141 | 2.0 | 10.0 | 0.00 | 0.00 | 0.00 | 61 | 1015.2 |
| 20260831004553 | 91 | 140 | 2.0 | 9.0 | 0.00 | 0.00 | 0.00 | 60 | 1015.1 |
| 20260831004052 | 91 | 157 | 1.0 | 11.0 | 0.00 | 0.00 | 0.00 | 59 | 1015.1 |
| 20260831003554 | 91 | 153 | 3.0 | 10.0 | 0.00 | 0.00 | 0.00 | 59 | 1015.1 |
| 20260831003103 | 91 | 160 | 3.0 | 10.0 | 0.00 | 0.00 | 0.00 | 58 | 1015.0 |
| 20260831002552 | 92 | 168 | 3.0 | 11.0 | 0.00 | 0.00 | 0.00 | 58 | 1014.9 |
| 20260831002052 | 92 | 177 | 4.0 | 11.0 | 0.00 | 0.00 | 0.00 | 57 | 1014.9 |
| 20260831001552 | 93 | 153 | 2.0 | 9.0 | 0.00 | 0.00 | 0.00 | 56 | 1014.8 |
| 20260831001052 | 93 | 179 | 1.0 | 7.0 | 0.00 | 0.00 | 0.00 | 56 | 1014.7 |
| 20260831000552 | 93 | 200 | 2.0 | 10.0 | 0.00 | 0.00 | 0.00 | 56 | 1014.7 |
| 20260831000052 | 93 | 188 | 4.0 | 10.0 | 0.00 | 0.00 | 0.00 | 55 | 1014.7 |
| 20260830235552 | 94 | 159 | 3.0 | 10.0 | 0.00 | 0.00 | 0.00 | 55 | 1014.7 |
| 20260830235051 | 94 | 134 | 3.0 | 11.0 | 0.00 | 0.00 | 0.00 | 55 | 1014.7 |
| 20260830234555 | 94 | 146 | 3.0 | 11.0 | 0.00 | 0.00 | 0.00 | 54 | 1014.6 |
| 20260830234051 | 94 | 180 | 1.0 | 11.0 | 0.00 | 0.00 | 0.00 | 54 | 1014.7 |
| 20260830233554 | 94 | 123 | 5.0 | 11.0 | 0.00 | 0.00 | 0.00 | 53 | 1014.5 |
| 20260830233053 | 95 | 184 | 4.0 | 11.0 | 0.00 | 0.00 | 0.00 | 52 | 1014.6 |
| 20260830232551 | 95 | 198 | 2.0 | 9.0 | 0.00 | 0.00 | 0.00 | 52 | 1014.4 |
| 20260830232052 | 95 | 141 | 1.0 | 11.0 | 0.00 | 0.00 | 0.00 | 52 | 1014.4 |
| 20260830231549 | 96 | 147 | 4.0 | 11.0 | 0.00 | 0.00 | 0.00 | 51 | 1014.4 |
| 20260830231049 | 96 | 144 | 4.0 | 11.0 | 0.00 | 0.00 | 0.00 | 51 | 1014.6 |
| 20260830230549 | 96 | 140 | 1.0 | 9.0 | 0.00 | 0.00 | 0.00 | 51 | 1014.6 |
| 20260830230049 | 97 | 144 | 3.0 | 9.0 | 0.00 | 0.00 | 0.00 | 50 | 1014.6 |